[[{"header":{"parameterUnit":"m.s-1","parameterCategory":1,"la1":30.2991,"la2":30.254,"lo1":-89.0895,"lo2":-89.0444,"dy":0.0017,"dx":0.0017,"nx":28,"ny":28,"refTime":"2024-08-05T09:00:00:Z","depth":0,"parameterNumber":2,"parameterNumberName":"U-component_of_WINDS"},"data":[0,0,0,0,0,0,0,0,0,0,0,0,0,0,0,0,0,0,0,0,0,0,0,0,0,0,0,0,0,0,0,0,0,0,0,0,0,0,0,0,0,0,0,0,0,0,0,0,0,0,0,0,0,0,0,0,0,0,0.1057,0.1058,0,0.1153,0.1154,0.1155,0.1163,0.1161,0.116,0.1159,0.1261,0.1264,0.1268,0,0,0,0,0,0,0,0,0,0,0,0,0,0.0884,0.0887,0.1057,0.1058,0.1059,0.1153,0.1154,0.1156,0.1163,0.1161,0.116,0.1159,0.1259,0.1264,0.1268,0,0,0,0,0,0,0,0,0,0,0,0,0,0.0967,0.0888,0.1057,0.1074,0.1076,0.1153,0.1154,0.1156,0.1163,0.1161,0.116,0.1158,0.1258,0.1263,0.1269,0.1335,0,0,0.1286,0.1288,0,0,0,0,0,0,0,0,0.0963,0.0974,0.107,0.1073,0.1076,0.1144,0.113,0.1216,0.1163,0.113,0.1159,0.1158,0.1223,0.1232,0.1253,0.134,0.1344,0.1286,0.129,0.1292,0.1293,0,0,0,0,0,0,0,0.0957,0.097,0.1095,0.1072,0.1075,0.1079,0.1089,0.1147,0.1185,0.1133,0.1134,0.1145,0.1225,0.1248,0.1256,0.1345,0.1286,0.1291,0.1294,0.1296,0.1495,0.1497,0,0,0,0,0,0,0.0947,0.0965,0.1092,0.1098,0.1014,0.1083,0.1094,0.1124,0.1184,0.1192,0.1146,0.1145,0.1239,0.1249,0.1259,0.1344,0.1292,0.1297,0.13,0.1493,0.1496,0.1498,0,0,0,0,0,0,0.0943,0.0958,0.1088,0.1032,0.1048,0.1088,0.1121,0.1127,0.115,0.1194,0.1201,0.1163,0.1238,0.1251,0.1317,0.1347,0.13,0.1305,0.1491,0.1494,0.1497,0.1512,0,0,0,0,0,0,0.0938,0.0957,0.0981,0.1032,0.1051,0.1143,0.1123,0.113,0.1159,0.1158,0.1211,0.1219,0.1238,0.1309,0.1322,0.1354,0.1309,0.1489,0.1492,0.1496,0.1509,0.1515,0.152,0,0,0,0,0,0.0932,0.0981,0.0983,0.0998,0.1082,0.1144,0.1155,0.1176,0.1161,0.1188,0.1216,0.1217,0.1341,0.1315,0.1331,0.1365,0.1487,0.1491,0.1496,0.1506,0.1514,0.152,0,0,0,0,0,0,0.0934,0.0988,0.099,0.1057,0.1096,0.1145,0.1179,0.1183,0.1227,0.1225,0.1249,0.1261,0.1327,0.1352,0.1322,0.1434,0.1413,0.142,0.1415,0.1423,0.1428,0.1422,0.1313,0,0,0,0,0,0.0941,0.0986,0.1032,0.1086,0.1106,0.1139,0.1166,0.1179,0.1221,0.1238,0.1271,0.1313,0.1362,0.1393,0.144,0.1512,0.1525,0.1543,0.1548,0.1553,0.156,0.1604,0.1614,0.1512,0.1512,0.1512,0,0,0.0959,0.0994,0.1021,0.1088,0.1119,0.1167,0.1153,0.1203,0.1239,0.1246,0.131,0.1336,0.1384,0.1454,0.1486,0.1477,0.1591,0.1559,0.1562,0.1567,0.161,0.1619,0.1628,0.1515,0.1515,0.1514,0,0,0.1015,0.1045,0.1095,0.1128,0.1176,0.1198,0.121,0.126,0.1277,0.1342,0.1349,0.1393,0.1475,0.1511,0.1539,0.1611,0.1616,0.1626,0.1657,0.1699,0.1707,0.1714,0.1744,0.1754,0.1632,0.1633,0.1633,0,0.1031,0.1102,0.1121,0.1172,0.1203,0.121,0.1264,0.1294,0.1356,0.1378,0.1366,0.1472,0.1504,0.1584,0.1602,0.1624,0.1641,0.1621,0.1704,0.1712,0.1719,0.1747,0.1758,0.1634,0.1634,0.1633,0.1633,0,0.1121,0.117,0.1205,0.1265,0.1299,0.1351,0.138,0.1413,0.1423,0.1446,0.1515,0.1554,0.1611,0.163,0.164,0.1713,0.1706,0.1699,0.1678,0.1729,0.1757,0.1767,0.1636,0.1635,0.1635,0.1634,0,0,0.1181,0.1252,0.1265,0.1294,0.1348,0.1388,0.1441,0.1496,0.1526,0.1568,0.1615,0.1686,0.168,0.1713,0.1727,0.1763,0.1823,0.1752,0.1754,0.1767,0.1911,0.1918,0.193,0.1825,0.1827,0.1829,0.1908,0,0.1247,0.1341,0.1361,0.1443,0.1491,0.15,0.1547,0.1586,0.161,0.1656,0.1682,0.1734,0.172,0.1741,0.1777,0.1808,0.1853,0.1802,0.1873,0.1875,0.1864,0.1944,0.1952,0.2025,0.1918,0.192,0.1921,0,0.1335,0.1381,0.1468,0.1519,0.154,0.1582,0.1636,0.1678,0.1724,0.174,0.1777,0.1788,0.1846,0.1821,0.1904,0.1869,0.1899,0.1918,0.1922,0.1932,0.1903,0.196,0.2048,0.2061,0.1938,0.1936,0.1935,0,0.1376,0.1458,0.1522,0.1546,0.1606,0.1636,0.1663,0.1707,0.174,0.1788,0.181,0.1863,0.1894,0.1936,0.1962,0.194,0.2044,0.202,0.2061,0.2061,0.2085,0.2084,0.2183,0.2098,0.2098,0.2097,0.2097,0,0.1448,0.1503,0.1541,0.1581,0.1643,0.1666,0.1727,0.1754,0.1794,0.1841,0.185,0.1894,0.1924,0.1973,0.1993,0.2061,0.2073,0.209,0.2095,0.2091,0.2089,0.2113,0.211,0.21,0.21,0.2099,0.2099,0,0.1505,0.1532,0.1604,0.1655,0.167,0.1713,0.1759,0.1799,0.1823,0.1882,0.1898,0.1936,0.1995,0.2024,0.2096,0.211,0.2188,0.2188,0.2173,0.2176,0.2217,0.2214,0.2337,0.2357,0.2255,0.2256,0.2257,0,0.1551,0.1593,0.165,0.1682,0.1709,0.176,0.1794,0.1819,0.1855,0.1912,0.1946,0.2005,0.2053,0.2147,0.2182,0.2239,0.2243,0.2282,0.2252,0.2247,0.2249,0.2247,0.2254,0.2289,0.229,0.2291,0.2291,0,0.1632,0.1644,0.1692,0.1747,0.1787,0.1831,0.1875,0.19,0.1932,0.1972,0.2032,0.207,0.2144,0.2204,0.2263,0.2293,0.2299,0.23,0.2314,0.2312,0.2303,0.2312,0.2192,0.2298,0.2297,0.2297,0.2297,0.2296,0.1688,0.1727,0.1774,0.1828,0.1864,0.1905,0.1946,0.1976,0.2026,0.2089,0.21,0.2165,0.2213,0.2293,0.2325,0.2377,0.2369,0.2387,0.2392,0.2397,0.2402,0.2291,0.2387,0.2387,0.2387,0.2387,0.2387,0,0.1773,0.1803,0.1853,0.1914,0.1958,0.1958,0.2007,0.2044,0.2101,0.2144,0.2192,0.2263,0.2321,0.2362,0.2422,0.2456,0.2461,0.2472,0.2471,0.2479,0.2403,0.2388,0.2467,0.2467,0.2467,0.2467,0.2467,0.2467,0.1822,0.189,0.1908,0.1994,0.2025,0.2088,0.2117,0.2156,0.2191,0.227,0.2318,0.2344,0.2388,0.2451,0.2506,0.2517,0.254,0.2552,0.2563,0.2492,0.2484,0.2476,0.2462,0.2555,0.2555,0.2635,0.2636,0.2636]},{"header":{"parameterUnit":"m.s-1","parameterCategory":1,"la1":30.2991,"la2":30.254,"lo1":-89.0895,"lo2":-89.0444,"dy":0.0017,"dx":0.0017,"nx":28,"ny":28,"refTime":"2024-08-05T09:00:00:Z","depth":0,"parameterNumber":3,"parameterNumberName":"V-component_of_WINDS"},"data":[0,0,0,0,0,0,0,0,0,0,0,0,0,0,0,0,0,0,0,0,0,0,0,0,0,0,0,0,0,0,0,0,0,0,0,0,0,0,0,0,0,0,0,0,0,0,0,0,0,0,0,0,0,0,0,0,0,0,-2.2661,-2.2661,0,-2.2638,-2.2638,-2.2638,-2.2691,-2.2693,-2.2695,-2.2696,-2.2671,-2.2669,-2.2666,0,0,0,0,0,0,0,0,0,0,0,0,0,-2.2749,-2.2747,-2.2661,-2.2661,-2.266,-2.2638,-2.2638,-2.2638,-2.2691,-2.2693,-2.2695,-2.2697,-2.2672,-2.2669,-2.2666,0,0,0,0,0,0,0,0,0,0,0,0,0,-2.2716,-2.2746,-2.2661,-2.2684,-2.2686,-2.2638,-2.2638,-2.2638,-2.2691,-2.2693,-2.2696,-2.2698,-2.2673,-2.2669,-2.2666,-2.2593,0,0,-2.2655,-2.2654,0,0,0,0,0,0,0,0,-2.2718,-2.2713,-2.2681,-2.2683,-2.2685,-2.267,-2.266,-2.2623,-2.269,-2.2689,-2.2697,-2.27,-2.2669,-2.2666,-2.2656,-2.2592,-2.2591,-2.2655,-2.2653,-2.2652,-2.2651,0,0,0,0,0,0,0,-2.272,-2.2714,-2.2652,-2.2681,-2.2683,-2.2695,-2.2694,-2.2653,-2.2664,-2.2689,-2.2693,-2.269,-2.267,-2.2659,-2.2655,-2.2591,-2.2655,-2.2652,-2.265,-2.2649,-2.2466,-2.2463,0,0,0,0,0,0,-2.272,-2.2716,-2.2653,-2.2651,-2.2708,-2.2692,-2.269,-2.2672,-2.2665,-2.2667,-2.2688,-2.2692,-2.2663,-2.2659,-2.2655,-2.2568,-2.2652,-2.2648,-2.2646,-2.2469,-2.2465,-2.2462,0,0,0,0,0,0,-2.2722,-2.2714,-2.2653,-2.2685,-2.2678,-2.2688,-2.2667,-2.267,-2.2659,-2.2664,-2.2666,-2.2674,-2.2665,-2.266,-2.2608,-2.2568,-2.2647,-2.2644,-2.2472,-2.2468,-2.2464,-2.2394,0,0,0,0,0,0,-2.2724,-2.2714,-2.2687,-2.2684,-2.2676,-2.2607,-2.2665,-2.2668,-2.2654,-2.266,-2.2652,-2.2653,-2.2667,-2.2613,-2.2605,-2.2565,-2.2641,-2.2476,-2.247,-2.2465,-2.24,-2.2388,-2.2378,0,0,0,0,0,-2.2727,-2.2668,-2.2685,-2.2677,-2.2642,-2.2605,-2.2601,-2.2618,-2.265,-2.2622,-2.2626,-2.2653,-2.2574,-2.2607,-2.2599,-2.2557,-2.2478,-2.2472,-2.2466,-2.2405,-2.2391,-2.2378,0,0,0,0,0,0,-2.2665,-2.2668,-2.2687,-2.2625,-2.2615,-2.2614,-2.2579,-2.2603,-2.2582,-2.2588,-2.2611,-2.2609,-2.2552,-2.255,-2.2587,-2.2486,-2.2532,-2.2523,-2.2489,-2.2475,-2.2464,-2.2464,-2.2638,0,0,0,0,0,-2.2644,-2.2614,-2.2619,-2.2564,-2.2557,-2.2569,-2.2554,-2.2569,-2.2558,-2.2554,-2.2553,-2.2541,-2.2514,-2.2495,-2.247,-2.2402,-2.24,-2.2369,-2.2358,-2.2348,-2.234,-2.2302,-2.2288,-2.2442,-2.2442,-2.2442,0,0,-2.26,-2.2599,-2.2578,-2.2551,-2.2545,-2.2512,-2.2565,-2.2529,-2.2504,-2.2548,-2.2499,-2.2498,-2.2487,-2.2426,-2.2399,-2.2422,-2.2298,-2.234,-2.2333,-2.2329,-2.2294,-2.228,-2.2267,-2.2437,-2.2438,-2.2439,0,0,-2.2504,-2.2501,-2.2454,-2.2446,-2.2436,-2.2445,-2.2434,-2.243,-2.2431,-2.2383,-2.2415,-2.2387,-2.2339,-2.2329,-2.2318,-2.2219,-2.2243,-2.2211,-2.2152,-2.2115,-2.2103,-2.2092,-2.2054,-2.2041,-2.2203,-2.2203,-2.2203,0,-2.245,-2.2403,-2.2427,-2.2388,-2.2374,-2.2414,-2.2366,-2.2358,-2.234,-2.2329,-2.2356,-2.2297,-2.2292,-2.2229,-2.2205,-2.2196,-2.2182,-2.221,-2.2103,-2.2092,-2.2083,-2.2047,-2.2033,-2.2199,-2.2199,-2.22,-2.22,0,-2.2337,-2.2304,-2.2268,-2.225,-2.2233,-2.219,-2.2206,-2.2186,-2.2203,-2.2209,-2.2159,-2.2155,-2.2129,-2.2116,-2.2132,-2.2055,-2.2069,-2.2099,-2.2145,-2.2063,-2.203,-2.2017,-2.2193,-2.2194,-2.2196,-2.2197,0,0,-2.2197,-2.2195,-2.218,-2.2172,-2.2165,-2.214,-2.2099,-2.2075,-2.2056,-2.2043,-2.2008,-2.1968,-2.1996,-2.1983,-2.1999,-2.1967,-2.1886,-2.2,-2.2,-2.1977,-2.1799,-2.1774,-2.1758,-2.1904,-2.1901,-2.19,-2.1799,0,-2.21,-2.203,-2.205,-2.1979,-2.1948,-2.1986,-2.195,-2.1942,-2.1946,-2.1921,-2.1926,-2.1896,-2.1936,-2.1928,-2.1899,-2.1902,-2.185,-2.191,-2.1869,-2.1867,-2.1867,-2.1741,-2.1715,-2.162,-2.1787,-2.1785,-2.1783,0,-2.1976,-2.1959,-2.1884,-2.1882,-2.187,-2.1837,-2.1817,-2.1793,-2.1783,-2.1789,-2.1776,-2.1798,-2.1757,-2.1806,-2.1749,-2.1789,-2.1774,-2.1774,-2.177,-2.1764,-2.1818,-2.1729,-2.1591,-2.1575,-2.1763,-2.1765,-2.1766,0,-2.1878,-2.1837,-2.1787,-2.1779,-2.1776,-2.1752,-2.1749,-2.1743,-2.1727,-2.171,-2.17,-2.1678,-2.1665,-2.1647,-2.1662,-2.1697,-2.1602,-2.1653,-2.1604,-2.1603,-2.1579,-2.158,-2.1433,-2.1575,-2.1575,-2.1575,-2.1576,0,-2.1765,-2.1717,-2.1742,-2.1711,-2.1659,-2.1684,-2.1631,-2.1633,-2.1628,-2.1597,-2.163,-2.16,-2.1624,-2.1597,-2.1609,-2.1559,-2.1554,-2.1556,-2.1559,-2.1551,-2.155,-2.1539,-2.1544,-2.1572,-2.1573,-2.1573,-2.1574,0,-2.1645,-2.166,-2.1608,-2.161,-2.1609,-2.1571,-2.1572,-2.1543,-2.1552,-2.1512,-2.1505,-2.1517,-2.1486,-2.1502,-2.147,-2.1478,-2.1412,-2.1426,-2.1415,-2.1417,-2.1367,-2.137,-2.1205,-2.1184,-2.1342,-2.134,-2.1339,0,-2.157,-2.1534,-2.1533,-2.1515,-2.1511,-2.1482,-2.1466,-2.149,-2.1472,-2.146,-2.1432,-2.1404,-2.1383,-2.1333,-2.1338,-2.1314,-2.1325,-2.127,-2.1322,-2.1314,-2.1321,-2.1321,-2.1317,-2.1257,-2.1256,-2.1254,-2.1253,0,-2.1434,-2.1444,-2.142,-2.1399,-2.138,-2.1365,-2.1352,-2.1336,-2.1359,-2.1338,-2.1307,-2.1291,-2.1259,-2.1231,-2.121,-2.1207,-2.1232,-2.1237,-2.1224,-2.1213,-2.1207,-2.1207,-2.1383,-2.124,-2.1241,-2.1242,-2.1243,-2.1243,-2.1332,-2.1302,-2.1296,-2.1269,-2.1263,-2.125,-2.1223,-2.1229,-2.1204,-2.118,-2.1196,-2.1159,-2.1152,-2.1127,-2.1121,-2.1092,-2.1114,-2.1096,-2.109,-2.1085,-2.1076,-2.1215,-2.1089,-2.1089,-2.109,-2.109,-2.109,0,-2.1195,-2.1194,-2.1169,-2.1151,-2.113,-2.1159,-2.1147,-2.1126,-2.1094,-2.1086,-2.1065,-2.1029,-2.1003,-2.1007,-2.0983,-2.0959,-2.097,-2.0951,-2.0951,-2.095,-2.106,-2.1072,-2.0943,-2.0943,-2.0943,-2.0943,-2.0943,-2.0943,-2.1121,-2.1071,-2.108,-2.1027,-2.1027,-2.0992,-2.0982,-2.0971,-2.0964,-2.0923,-2.0902,-2.0906,-2.0902,-2.0878,-2.0854,-2.0857,-2.0844,-2.0821,-2.0827,-2.0928,-2.0942,-2.0956,-2.0968,-2.0819,-2.0819,-2.0719,-2.0718,-2.0717]}]]